Printer-friendly version

IAU Minor Planet Center

Minor Planet Center

MPEC 2004-E32 : 2002 CZ154, 2002 CY248, 2002 CD251, 2002 XH91, 2003 FK127, 2003 FH129

The following Minor Planet Electronic Circular may be linked-to from your own Web pages, but must not otherwise be redistributed electronically.


Read MPEC 2004-E31 Read MPEC 2004-E33


M.P.E.C. 2004-E32                                Issued 2004 Mar. 11, 02:17 UT

     The Minor Planet Electronic Circulars contain information on unusual
         minor planets and routine data on comets.  They are published
   on behalf of Commission 20 of the International Astronomical Union by the
          Minor Planet Center, Smithsonian Astrophysical Observatory,
                          Cambridge, MA 02138, U.S.A.

         Supported in part by the Steven and Michele Kirsch Foundation
             Prepared using the Tamkin Foundation Computer Network

                              MPC@CFA.HARVARD.EDU
          URL http://cfa-www.harvard.edu/iau/mpc.html  ISSN 1523-6714

     2002 CZ154, 2002 CY248, 2002 CD251, 2002 XH91, 2003 FK127, 2003 FH129

  Revision to MPEC 2002-D25, 2002-F27, 2002-G19, 2003-A05, 2003-H05, 2003-K17

Additional Observations:
     K02CF4Z  C2004 02 26.37420 11 26 30.25 +06 48 47.6          23.4 R EE032695
     K02CF4Z  C2004 02 26.45335 11 26 29.89 +06 48 50.3                 EE032695
     K02CF4Z  C2004 02 27.36964 11 26 25.83 +06 49 19.2                 EE032695
     K02CO8Y  C2004 02 26.15900 08 30 12.64 +18 17 39.3          21.9 R EE032695
     K02CO8Y  C2004 02 26.23358 08 30 12.39 +18 17 40.1                 EE032695
     K02CO8Y  C2004 02 27.16504 08 30 09.13 +18 17 51.1                 EE032695
     K02CP1D  C2003 03 07.20235 10 04 12.18 +13 23 13.5          22.6 R EE032662
     K02CP1D  C2003 03 07.37417 10 04 11.40 +13 23 17.0                 EE032662
     K02CP1D  C2004 02 22.33208 10 10 19.34 +12 49 26.6          23.1 R EE032695
     K02CP1D  C2004 02 22.38762 10 10 19.09 +12 49 28.1                 EE032695
     K02X91H  C2003 11 23.42341 06 53 28.77 +24 41 17.2          22.0 R EE032695
     K02X91H  C2003 11 23.49215 06 53 28.53 +24 41 18.1                 EE032695
     K02X91H  C2004 02 27.15632 06 46 50.81 +24 50 01.0          22.1 R EE032695
     K02X91H  C2004 02 27.26209 06 46 50.56 +24 50 01.1                 EE032695
     K03FC7K  C2004 02 26.37036 11 23 36.05 +06 26 27.4          23.1 R EE032695
     K03FC7K  C2004 02 26.44895 11 23 35.69 +06 26 29.9                 EE032695
     K03FC7K  C2004 02 27.36196 11 23 31.57 +06 26 56.9                 EE032695
     K03FC9H  C2004 02 26.38249 11 22 45.99 +03 19 24.2          23.4 R EE032695
     K03FC9H  C2004 02 26.46107 11 22 45.58 +03 19 27.4                 EE032695
     K03FC9H  C2004 02 27.38600 11 22 40.95 +03 20 04.1                 EE032695

Observer details:
695 Kitt Peak.  Observers M. W. Buie, D. E. Trilling, L. H. Wasserman,
    E. I. Chiang, J. R. Lovering.  Measurers M. W. Buie, L. H. Wasserman,
    R. L. Millis, J. R. Lovering, D. E. Trilling, G. C. Panova, K. B. Clancy.
    4-m reflector + CCD.
662 Lick Observatory, Mount Hamilton.  Observers E. I. Chiang, A. B. Jordan.
    3-m telescope + CCD.

Orbital elements:
2002 CZ154
Epoch 2004 July 14.0 TT = JDT 2453200.5                 MPC
M 318.99068              (2000.0)            P               Q
n   0.00340223     Peri.   66.30046     -0.76877797     +0.63454740
a  43.7818122      Node   152.87781     -0.63169639     -0.73408319
e   0.0977175      Incl.   10.05068     -0.09970013     -0.24180875
P 290              H    7.3           G   0.15           U   7
Residuals in seconds of arc
K0226  695  0.3-  0.0     K023D  696  0.3+  0.1-    K042Q  695  0.0   0.1+
K0226  695  0.1+  0.1+    K023K  695  0.2-  0.2-    K042Q  695  0.1-  0.2+
K0227  695  0.2+  0.0     K023K  695  0.0   0.2+    K042R  695  0.1+  0.3-

2002 CY248
Eccentricity assumed
Epoch 2004 July 14.0 TT = JDT 2453200.5                 MPC
M 119.65310              (2000.0)            P               Q
n   0.00304096     Peri.   50.24721     +0.98257774     +0.15311815
a  47.1840667      Node   300.70490     -0.18446235     +0.87264610
e   0.1771847      Incl.    7.03709     +0.02268541     +0.46372796
P 324              H    5.0           G   0.15
Residuals in seconds of arc
K0226  695  0.1+  0.0     K0238  568  0.1-  0.0     K042Q  695  0.2+  0.1-
K0226  695  0.1-  0.0     K0239  568  0.0   0.0     K042R  695  0.3-  0.1+
K0238  568  0.2+  0.0     K042Q  695  0.0   0.0

2002 CD251
Epoch 2004 July 14.0 TT = JDT 2453200.5                 MPC
M  54.65343              (2000.0)            P               Q
n   0.00351197     Peri.   45.83989     -0.08259981     -0.99640575
a  42.8649761      Node    48.90779     +0.90708702     -0.08297557
e   0.0121685      Incl.    1.42823     +0.41275950     -0.01704832
P 281              H    7.1           G   0.15           U   5
Residuals in seconds of arc
K0228  695  0.1+  0.1-    K0246  696  0.2+  0.2-    K0337  662  0.1+  0.2+
K0228  695  0.1+  0.0     K0246  696  0.3+  0.4-    K042M  695  0.2-  0.3-
K023I  695  1.0-  0.1+    K0246  696  0.2+  0.1+    K042M  695  0.0   0.2-
K023I  695  0.1-  0.0     K0337  662  0.2+  0.7+

2002 XH91
Epoch 2004 July 14.0 TT = JDT 2453200.5                 MPC
M 200.34363              (2000.0)            P               Q
n   0.00336719     Peri.  184.38473     -0.08996635     +0.99224476
a  44.0850182      Node    80.47004     -0.91109626     -0.04721323
e   0.0859110      Incl.    4.98930     -0.40225571     -0.11498369
P 293              H    5.6           G   0.15           U   5
Residuals in seconds of arc
K02C4  695  0.0   0.2-    K031U  688  0.1+  0.1+    K03BN  695  0.0   0.3+
K02C4  695  0.1-  0.0     K031U  688  0.1-  0.0     K042R  695  0.0   0.1-
K02C5  695  0.1+  0.1+    K03BN  695  0.0   0.1-    K042R  695  0.0   0.1-

2003 FK127
Eccentricity assumed
Epoch 2004 July 14.0 TT = JDT 2453200.5                 MPC
M 305.50962              (2000.0)            P               Q
n   0.00339654     Peri.  155.86447     -0.50184781     +0.86405841
a  43.8307008      Node    83.99206     -0.79988512     -0.44628147
e   0.1544741      Incl.    2.27013     -0.32913913     -0.23288605
P 290              H    7.1           G   0.15
Residuals in seconds of arc
K033U  695  0.0   0.1-    K033V  695  0.0   0.3+    K042Q  695  0.0   0.1+
K033U  695  0.0   0.2-    K042Q  695  0.0   0.1-    K042R  695  0.1+  0.0

2003 FH129
Epoch 2004 July 14.0 TT = JDT 2453200.5                 MPC
M  15.88629              (2000.0)            P               Q
n   0.00192307     Peri.  301.29374     -0.39541581     -0.91730848
a  64.0432228      Node   171.58872     +0.91327156     -0.39808457
e   0.5488217      Incl.   18.66478     +0.09788463     +0.00859222
P 513              H    8.2           G   0.15           U   5
Residuals in seconds of arc
K033U  695  0.0   0.1-    K034T  568  0.2-  0.1+    K042Q  695  0.2-  0.1-
K033U  695  0.1-  0.2+    K034U  568  0.3+  0.1+    K042R  695  0.2+  0.4+
K034T  568  0.2-  0.2-    K042Q  695  0.1-  0.3-

Ephemerides:
2002 CZ154               a,e,i = 43.78, 0.10, 10                 q = 39.504
Date    TT    R. A. (2000) Decl.     Delta      r     Elong.  Phase     V
2004 03 06    11 25.85   +06 53.4   39.791   40.780   175.2     0.1    23.4
2004 03 16    11 25.09   +06 58.7   39.791   40.778   172.9     0.2    23.4
2004 03 26    11 24.34   +07 03.8   39.820   40.776   163.2     0.4    23.4
2004 04 05    11 23.63   +07 08.5   39.879   40.774   153.2     0.6    23.5
2004 04 15    11 22.99   +07 12.5   39.964   40.772   143.3     0.8    23.5
2004 04 25    11 22.45   +07 15.9   40.073   40.770   133.4     1.0    23.5
2004 05 05    11 22.01   +07 18.5   40.202   40.768   123.6     1.2    23.5
2004 05 15    11 21.71   +07 20.1   40.347   40.766   113.8     1.3    23.6
2004 05 25    11 21.54   +07 20.9   40.504   40.765   104.2     1.4    23.6
2004 06 04    11 21.52   +07 20.6   40.668   40.763    94.6     1.4    23.6
2004 06 14    11 21.65   +07 19.4   40.835   40.761    85.1     1.4    23.6
2004 06 24    11 21.93   +07 17.3   40.999   40.759    75.6     1.4    23.6
2004 07 04    11 22.35   +07 14.3   41.156   40.757    66.2     1.3    23.6
2004 07 14    11 22.90   +07 10.6   41.302   40.755    56.9     1.2    23.6
2004 07 24    11 23.57   +07 06.1   41.432   40.753    47.5     1.1    23.6
2004 08 03    11 24.35   +07 01.1   41.544   40.751    38.2     0.9    23.6

2002 CY248               a,e,i = 47.18, 0.18, 7                  q = 38.824
Date    TT    R. A. (2000) Decl.     Delta      r     Elong.  Phase     V
2004 03 06    08 29.73   +18 19.3   51.495   52.254   139.5     0.7    22.3
2004 03 16    08 29.27   +18 20.8   51.619   52.257   129.4     0.8    22.3
2004 03 26    08 28.91   +18 22.0   51.763   52.260   119.4     1.0    22.3
2004 04 05    08 28.68   +18 22.8   51.921   52.263   109.5     1.0    22.3
2004 04 15    08 28.57   +18 23.1   52.089   52.266    99.7     1.1    22.3
2004 04 25    08 28.59   +18 22.9   52.262   52.270    89.9     1.1    22.3
2004 05 05    08 28.75   +18 22.4   52.435   52.273    80.2     1.1    22.4
2004 05 15    08 29.03   +18 21.3   52.603   52.276    70.6     1.0    22.4
2004 05 25    08 29.42   +18 19.8   52.761   52.279    61.1     1.0    22.4
2004 06 04    08 29.93   +18 18.0   52.906   52.282    51.6     0.9    22.4
2004 06 14    08 30.53   +18 15.7   53.033   52.285    42.2     0.7    22.3
2004 06 24    08 31.22   +18 13.2   53.140   52.289    32.8     0.6    22.3
2004 07 04    08 31.97   +18 10.4   53.223   52.292    23.5     0.4    22.3

